Benson, MN

10:46 AM CDT on May 26, 2017 (GMT -0500)
Benson Municipal

Weather History for KBBB - November, 2011

Change the Weather History Date:

Sunday, November 13, 2011

  Actual Average Record
Temperature  
Mean Temperature 39 °F -  
Max Temperature 46 °F 39 °F 71 °F (1999)
Min Temperature 32 °F 24 °F -3 °F (1986)
Degree Days  
Heating Degree Days 26    
Moisture  
Dew Point 29 °F    
Average Humidity 72    
Maximum Humidity 87    
Minimum Humidity 57    
Precipitation  
Precipitation 0.00 in - - ()
Sea Level Pressure  
Sea Level Pressure 29.29 in    
Wind  
Wind Speed 8 mph (NW)    
Max Wind Speed 18 mph    
Max Gust Speed 23 mph    
Visibility 10 miles    
Events      
Averages and records for this station are not official NWS values.
T = Trace of Precipitation, MM = Missing Value Source: NWS Daily Summary

Daily Weather History Graph

Daily Weather History Graph

Search for Another Location

Airport or City:

Trip Planner

Search our weather history database for the weather conditions in past years. The results will help you decide how hot, cold, wet, or windy it might be!

Date:

Astronomy

Nov. 13, 2011 Rise Set
Actual Time 7:18 AM CST 4:55 PM CST
Civil Twilight 6:46 AM CST 5:26 PM CST
Nautical Twilight 6:10 AM CST 6:02 PM CST
Astronomical Twilight 5:35 AM CST 6:37 PM CST
Moon 6:59 PM CST (11/13) 9:56 AM CST (11/13)
Length of Visible Light 10h 40m
Length of Day
9h 36m
Waning Gibbous, 92% of the Moon is Illuminated
Nov 13
Waning Gibbous
Nov 18
Last Quarter
Nov 25
New
Dec 2
First Quarter
Dec 10
Full

Hourly Weather History & Observations

Time (CST) Temp. Windchill Dew Point Humidity Pressure Visibility Wind Dir Wind Speed Gust Speed Precip Events Conditions
12:13 AM 42.8 °F 38.0 °F 30.2 °F 61% 29.15 in 10.0 mi West 8.1 mph - N/A   Clear
12:33 AM 41.0 °F 35.8 °F 28.4 °F 61% 29.16 in 10.0 mi West 8.1 mph - N/A   Clear
12:52 AM 39.2 °F 33.6 °F 26.6 °F 61% 29.17 in 10.0 mi WNW 8.1 mph - N/A   Clear
1:13 AM 37.4 °F 32.1 °F 26.6 °F 65% 29.18 in 10.0 mi WNW 6.9 mph - N/A   Clear
1:33 AM 37.4 °F 31.4 °F 26.6 °F 65% 29.18 in 10.0 mi NW 8.1 mph - N/A   Clear
1:52 AM 39.2 °F 35.0 °F 26.6 °F 61% 29.18 in 10.0 mi NW 5.8 mph - N/A   Clear
2:13 AM 37.4 °F 31.4 °F 24.8 °F 60% 29.19 in 10.0 mi NW 8.1 mph - N/A   Clear
2:32 AM 33.8 °F 27.0 °F 24.8 °F 70% 29.19 in 10.0 mi NW 8.1 mph - N/A   Clear
2:52 AM 33.8 °F 28.6 °F 24.8 °F 70% 29.20 in 10.0 mi NNW 5.8 mph - N/A   Clear
3:13 AM 35.6 °F 30.7 °F 24.8 °F 65% 29.20 in 10.0 mi NNW 5.8 mph - N/A   Clear
3:32 AM 33.8 °F 30.8 °F 26.6 °F 75% 29.20 in 10.0 mi NNW 3.5 mph - N/A   Clear
3:53 AM 33.8 °F 30.8 °F 26.6 °F 75% 29.20 in 10.0 mi NNW 3.5 mph - N/A   Clear
4:13 AM 33.8 °F 29.6 °F 26.6 °F 75% 29.21 in 10.0 mi NNW 4.6 mph - N/A   Clear
4:32 AM 33.8 °F 30.8 °F 26.6 °F 75% 29.21 in 10.0 mi WNW 3.5 mph - N/A   Scattered Clouds
4:53 AM 33.8 °F 30.8 °F 26.6 °F 75% 29.21 in 10.0 mi NNW 3.5 mph - N/A   Scattered Clouds
5:32 AM 33.8 °F 28.6 °F 26.6 °F 75% 29.21 in 10.0 mi North 5.8 mph - N/A   Overcast
5:53 AM 35.6 °F 32.8 °F 26.6 °F 70% 29.22 in 10.0 mi North 3.5 mph - N/A   Mostly Cloudy
6:32 AM 37.4 °F 32.1 °F 28.4 °F 70% 29.24 in 10.0 mi NNW 6.9 mph - N/A   Overcast
6:53 AM 35.6 °F 27.5 °F 28.4 °F 75% 29.24 in 10.0 mi North 11.5 mph - N/A   Mostly Cloudy
7:12 AM 33.8 °F 24.8 °F 28.4 °F 81% 29.25 in 10.0 mi North 12.7 mph 16.1 mph N/A   Mostly Cloudy
7:33 AM 32.0 °F 25.6 °F 26.6 °F 80% 29.26 in 10.0 mi North 6.9 mph - N/A   Mostly Cloudy
7:53 AM 33.8 °F 24.8 °F 28.4 °F 81% 29.27 in 10.0 mi North 12.7 mph 17.3 mph N/A   Mostly Cloudy
8:12 AM 33.8 °F 23.5 °F 28.4 °F 81% 29.28 in 10.0 mi North 16.1 mph 19.6 mph N/A   Overcast
8:33 AM 33.8 °F 23.2 °F 28.4 °F 81% 29.29 in 10.0 mi North 17.3 mph 21.9 mph N/A   Overcast
8:52 AM 33.8 °F 22.8 °F 30.2 °F 87% 29.30 in 10.0 mi North 18.4 mph 23.0 mph N/A   Overcast
9:12 AM 35.6 °F 26.2 °F 30.2 °F 81% 29.30 in 7.0 mi North 15.0 mph 19.6 mph N/A   Overcast
9:33 AM 35.6 °F 27.1 °F 30.2 °F 81% 29.30 in 7.0 mi North 12.7 mph 20.7 mph N/A   Overcast
9:52 AM 35.6 °F 25.5 °F 30.2 °F 81% 29.32 in 7.0 mi North 17.3 mph 23.0 mph N/A   Overcast
10:12 AM 35.6 °F 26.2 °F 30.2 °F 81% 29.32 in 7.0 mi North 15.0 mph 18.4 mph N/A   Overcast
10:33 AM 35.6 °F 26.6 °F 30.2 °F 81% 29.33 in 7.0 mi North 13.8 mph - N/A   Overcast
10:52 AM 37.4 °F 28.9 °F 30.2 °F 75% 29.33 in 10.0 mi North 13.8 mph - N/A   Overcast
11:12 AM 37.4 °F 29.3 °F 30.2 °F 75% 29.33 in 10.0 mi NNW 12.7 mph 16.1 mph N/A   Overcast
11:33 AM 37.4 °F 30.3 °F 30.2 °F 75% 29.33 in 10.0 mi NNW 10.4 mph - N/A   Overcast
11:52 AM 39.2 °F 32.0 °F 32.0 °F 75% 29.32 in 10.0 mi NNW 11.5 mph - N/A   Overcast
12:12 PM 39.2 °F 32.5 °F 32.0 °F 75% 29.32 in 10.0 mi NNW 10.4 mph - N/A   Overcast
12:33 PM 39.2 °F 33.6 °F 32.0 °F 75% 29.33 in 10.0 mi NW 8.1 mph - N/A   Overcast
12:52 PM 39.2 °F 33.6 °F 32.0 °F 75% 29.32 in 10.0 mi WNW 8.1 mph - N/A   Overcast
1:13 PM 42.8 °F 35.8 °F 32.0 °F 66% 29.32 in 10.0 mi WNW 13.8 mph - N/A   Overcast
1:33 PM 42.8 °F 35.8 °F 32.0 °F 66% 29.33 in 10.0 mi WNW 13.8 mph - N/A   Overcast
1:52 PM 44.6 °F 37.8 °F 32.0 °F 61% 29.33 in 10.0 mi NW 15.0 mph - N/A   Scattered Clouds
2:13 PM 44.6 °F 38.8 °F 32.0 °F 61% 29.32 in 10.0 mi NW 11.5 mph 16.1 mph N/A   Mostly Cloudy
2:33 PM 46.4 °F 41.1 °F 32.0 °F 57% 29.31 in 10.0 mi NW 11.5 mph - N/A   Overcast
2:52 PM 44.6 °F 38.8 °F 32.0 °F 61% 29.33 in 10.0 mi NW 11.5 mph - N/A   Overcast
3:13 PM 44.6 °F 39.2 °F 32.0 °F 61% 29.33 in 10.0 mi WNW 10.4 mph - N/A   Mostly Cloudy
3:32 PM 44.6 °F 40.7 °F 32.0 °F 61% 29.34 in 10.0 mi WNW 6.9 mph - N/A   Scattered Clouds
3:52 PM 46.4 °F 41.5 °F 32.0 °F 57% 29.34 in 10.0 mi WNW 10.4 mph - N/A   Scattered Clouds
4:13 PM 44.6 °F 40.7 °F 32.0 °F 61% 29.35 in 10.0 mi West 6.9 mph - N/A   Clear
4:32 PM 42.8 °F 40.1 °F 32.0 °F 66% 29.35 in 10.0 mi West 4.6 mph - N/A   Clear
4:53 PM 39.2 °F - 30.2 °F 70% 29.35 in 10.0 mi Calm Calm - N/A   Clear
5:13 PM 39.2 °F 37.0 °F 30.2 °F 70% 29.36 in 10.0 mi SW 3.5 mph - N/A   Clear
5:32 PM 39.2 °F 35.9 °F 30.2 °F 70% 29.36 in 10.0 mi SW 4.6 mph - N/A   Clear
5:53 PM 37.4 °F 33.8 °F 30.2 °F 75% 29.36 in 10.0 mi SSW 4.6 mph - N/A   Mostly Cloudy
6:13 PM 37.4 °F 32.1 °F 28.4 °F 70% 29.37 in 10.0 mi SSW 6.9 mph - N/A   Scattered Clouds
6:32 PM 33.8 °F 27.7 °F 28.4 °F 81% 29.37 in 10.0 mi SSW 6.9 mph - N/A   Clear
6:53 PM 33.8 °F 28.6 °F 28.4 °F 81% 29.37 in 10.0 mi SSW 5.8 mph - N/A   Clear
7:12 PM 33.8 °F 28.6 °F 28.4 °F 81% 29.38 in 10.0 mi SW 5.8 mph - N/A   Clear
7:32 PM 33.8 °F 29.6 °F 26.6 °F 75% 29.38 in 10.0 mi WSW 4.6 mph - N/A   Clear
7:53 PM 33.8 °F - 26.6 °F 75% 29.37 in 10.0 mi Calm Calm - N/A   Clear
8:12 PM 35.6 °F 29.2 °F 26.6 °F 70% 29.38 in 10.0 mi WSW 8.1 mph - N/A   Scattered Clouds
8:53 PM 33.8 °F 26.4 °F 24.8 °F 70% 29.39 in 10.0 mi WSW 9.2 mph - N/A   Clear
9:12 PM 33.8 °F 26.4 °F 24.8 °F 70% 29.39 in 10.0 mi SW 9.2 mph - N/A   Clear
9:33 PM 32.0 °F 24.8 °F 24.8 °F 75% 29.39 in 10.0 mi SW 8.1 mph - N/A   Clear
9:53 PM 30.2 °F 22.6 °F 24.8 °F 80% 29.40 in 10.0 mi SW 8.1 mph - N/A   Clear
10:52 PM 35.6 °F 28.0 °F 26.6 °F 70% 29.40 in 10.0 mi WSW 10.4 mph - N/A   Clear
11:12 PM 30.2 °F 23.4 °F 24.8 °F 80% 29.39 in 10.0 mi SSW 6.9 mph - N/A   Clear
11:33 PM 30.2 °F 23.4 °F 24.8 °F 80% 29.40 in 10.0 mi SW 6.9 mph - N/A   Clear
11:52 PM 33.8 °F 26.4 °F 24.8 °F 70% 29.40 in 10.0 mi SW 9.2 mph - N/A   Scattered Clouds